Location: Finnegan
(51.1333°N, 112.0833°W)
Time: 08:02:21
(UTC+00:00)

N. Korean satellite - Pass Details

Date: 05 December 2021
Orbit: 446 x 491 km, 97.3° (Epoch: 18 January)

Event Time Altitude Azimuth Distance (km) Brightness Sun altitude
Rises 13:38:40 0° 4° (N) 2,473 10.0 -14.3°
Reaches altitude 10° 13:40:53 10° 352° (N) 1,591 8.9 -14.0°
Maximum altitude 13:43:49 28° 293° (WNW) 885 7.3 -13.6°
Drops below altitude 10° 13:46:44 10° 233° (SW) 1,574 8.8 -13.1°
Sets 13:48:56 0° 221° (SW) 2,441 9.9 -12.8°
